TimeCDT,TemperatureF,Dew PointF,Humidity,Sea Level PressureIn,VisibilityMPH,Wind Direction,Wind SpeedMPH,Gust SpeedMPH,PrecipitationIn,Events,Conditions,WindDirDegrees,DateUTC
12:56 AM,51.1,39.0,63,30.01,10.0,NW,23.0,36.8,N/A,,Clear,310,2012-10-04 05:56:00
1:49 AM,48.2,37.4,66,30.05,10.0,NW,26.5,38.0,N/A,,Mostly Cloudy,310,2012-10-04 06:49:00
1:56 AM,48.0,37.9,68,30.04,10.0,NW,23.0,38.0,N/A,,Mostly Cloudy,320,2012-10-04 06:56:00
2:56 AM,46.0,37.9,73,30.08,10.0,WNW,21.9,28.8,N/A,,Mostly Cloudy,300,2012-10-04 07:56:00
3:56 AM,44.1,36.0,73,30.08,10.0,NW,20.7,33.4,N/A,,Overcast,320,2012-10-04 08:56:00
4:56 AM,44.1,35.1,71,30.11,10.0,NW,21.9,34.5,N/A,,Overcast,320,2012-10-04 09:56:00
5:56 AM,43.0,34.0,71,30.15,10.0,NW,13.8,25.3,N/A,,Overcast,320,2012-10-04 10:56:00
6:56 AM,43.0,32.0,65,30.18,10.0,NNW,25.3,35.7,N/A,,Overcast,330,2012-10-04 11:56:00
7:06 AM,42.8,32.0,66,30.18,10.0,NNW,23.0,33.4,N/A,,Overcast,330,2012-10-04 12:06:00
7:33 AM,42.8,33.8,70,30.19,10.0,NW,15.0,-,N/A,,Overcast,320,2012-10-04 12:33:00
7:56 AM,43.0,33.1,68,30.20,10.0,NNW,13.8,-,N/A,,Overcast,340,2012-10-04 12:56:00
8:56 AM,43.0,32.0,65,30.22,10.0,NW,17.3,-,N/A,,Mostly Cloudy,310,2012-10-04 13:56:00
9:56 AM,45.0,30.0,56,30.24,10.0,NNW,26.5,36.8,N/A,,Mostly Cloudy,330,2012-10-04 14:56:00
10:56 AM,46.0,30.0,54,30.26,10.0,NW,21.9,33.4,N/A,,Overcast,310,2012-10-04 15:56:00
11:56 AM,48.0,30.0,50,30.29,10.0,NNW,21.9,27.6,N/A,,Overcast,330,2012-10-04 16:56:00
12:56 PM,50.0,30.0,46,30.30,10.0,NW,16.1,27.6,N/A,,Overcast,310,2012-10-04 17:56:00
1:56 PM,53.1,30.0,41,30.29,10.0,NW,17.3,26.5,N/A,,Mostly Cloudy,320,2012-10-04 18:56:00
2:56 PM,52.0,28.9,41,30.28,10.0,North,18.4,26.5,N/A,,Clear,350,2012-10-04 19:56:00
4:56 PM,52.0,28.9,41,30.29,10.0,NW,16.1,25.3,N/A,,Clear,320,2012-10-04 21:56:00
5:56 PM,51.1,28.0,41,30.29,10.0,NNW,12.7,-,N/A,,Clear,330,2012-10-04 22:56:00
6:56 PM,48.0,27.0,44,30.30,10.0,NNW,12.7,-,N/A,,Clear,330,2012-10-04 23:56:00
7:56 PM,45.0,28.0,52,30.31,10.0,NNW,9.2,-,N/A,,Clear,330,2012-10-05 00:56:00
9:56 PM,39.0,28.0,65,30.35,10.0,NW,5.8,-,N/A,,Clear,310,2012-10-05 02:56:00
10:56 PM,35.1,26.1,70,30.37,10.0,West,5.8,-,N/A,,Clear,270,2012-10-05 03:56:00
11:56 PM,35.1,27.0,72,30.36,10.0,WNW,8.1,-,N/A,,Clear,290,2012-10-05 04:56:00